Back to catalog

STARLINK-5327

AliveCommunicationsVLEO
NORAD 55291·PAYLOAD·🇺🇸 United States

Launched Jan 19, 2023 from Vandenberg Space Force Base

Loading…

Next Passes (next 24 hours)

TLE

FreshSource: CelesTrak SupGP

Epoch: Sep 14, 2026, 21:42 UTC

1 55291C 23010Y   26257.90465278  .00062227  00000+0  52153-2 0  2574
2 55291  69.9996 267.5098 0003113 268.9985 261.0844 14.98296172    19

Track STARLINK-5327 in real time with AllMySat

Download on the App Store